Notices

What's New in latest Release from April 7th, 2021:

- Updated Glossary, including Speed of Maximum Gust, and Total Hourly Precipitation

- Updated national and regional climate services offices contacts and prices information

- Addition of station inventory lists for 1981-2010, 1971-2000, and 1961-1990 Normals.

If you haven't already, please take our survey and provide feedback about our website: https://eccc.sondage-survey.ca/f/LanguageSelection.aspx?s=442ca660-fcf1-47c0-95a9-59707d6fd709

Hourly Data Report for November 18, 2020

SHEARWATER RCS
NOVA SCOTIA
Current Station Operator: ECCC - MSC

44°37'47.000" N
63°30'48.000" W
24.00 m
8205092
71264
AAW

Download Data

Hourly Data (November 2020)
Hourly Data Report for November 18, 2020
TIME
LST
Temp Definition
°C
Dew Point Definition
°C
Rel Hum Definition
%
Precip. Amount Definition
mm

Wind Dir Definition
10's deg

Wind Spd Definition
km/h
Visibility Definition
km
Stn Press Definition
kPa
Hmdx Definition


Wind Chill Definition


Weather Definition


00:00 1.8 -4.7 62 0.0 30 11   100.71     LegendNANA
01:00 1.2 -5.5 61 0.0 31 13   100.75     LegendNANA
02:00 0.5 -6.2 61 0.0 32 9   100.80     LegendNANA
03:00 -0.3 -5.4 68 0.0 33 7   100.87   -3 LegendNANA
04:00 -0.4 -5.7 67 0.0 33 7   100.89   -3 LegendNANA
05:00 -0.8 -5.2 72 0.0 33 6   100.96   -3 LegendNANA
06:00 -1.3 -5.0 76 0.0 32 7   101.01   -4 LegendNANA
07:00 -0.3 -4.9 71 0.0 30 9   101.09   -3 LegendNANA
08:00 0.0 -4.3 73 0.0 31 14   101.20   -4 LegendNANA
09:00 -0.3 -4.7 72 0.0 33 13   101.31   -4 LegendNANA
10:00 -0.4 -5.7 67 0.0 33 19   101.35   -6 LegendNANA
11:00 -0.8 -6.7 64 0.0 32 17   101.40   -6 LegendNANA
12:00 -0.6 -7.2 61 0.0 32 18   101.39   -6 LegendNANA
13:00 0.8 -7.0 56 0.0 32 18   101.36     LegendNANA
14:00 1.2 -8.3 49 0.0 33 20   101.41     LegendNANA
15:00 0.7 -9.4 47 0.0 32 23   101.47     LegendNANA
16:00 -0.1 -9.4 49 0.0 31 18   101.57   -5 LegendNANA
17:00 -0.3 -10.3 47 0.0 32 18   101.64   -5 LegendNANA
18:00 -0.4 -9.7 49 0.0 32 21   101.75   -6 LegendNANA
19:00 -0.5 -10.1 48 0.0 31 15   101.83   -5 LegendNANA
20:00 -0.8 -11.2 45 0.0 32 20   101.92   -6 LegendNANA
21:00 -1.1 -11.9 44 0.0 32 17   102.01   -6 LegendNANA
22:00 -1.2 -12.6 42 0.0 32 16   102.10   -6 LegendNANA
23:00 -1.8 -11.9 46 0.0 32 14   102.14   -6 LegendNANA

Notes on Data Quality.

Legend

  • E = Estimated
  • M = Missing
  • NA = Not Available*
  • [empty] = Indicates an unobserved value
Date modified: